Location: ?????????
(41.2286°N, 23.0068°E)
Time: 09:45:43
(UTC+00:00)

Orbus 7S? - Pass Details

Date: 08 November 2025
Orbit: 354 x 6170 km, 56.9° (Epoch: 30 September)

Event Time Altitude Azimuth Distance (km) Brightness Sun altitude
Rises 04:26:29 0° 243° (WSW) 4,644 7.6 -8.2°
Reaches altitude 10° 04:30:46 10° 252° (WSW) 2,867 6.5 -7.4°
Maximum altitude 04:36:06 33° 316° (NW) 1,028 4.3 -6.4°
Drops below altitude 10° 04:39:06 10° 24° (NNE) 1,580 5.8 -5.9°
Sets 04:40:50 0° 36° (NE) 2,287 6.8 -5.6°
